Regional Weather Roundup
Issued by NWS Northern Indiana

Home | Current Version | Previous Version | Text Only | Print | Product List | Glossary Off
Versions: 1 2 3 4 5 6 7 8 9 10 11 12 13 14 15 16 17 18 19 20 21 22 23 24 25 26 27 28 29 30 31 32 33 34 35 36 37 38 39 40 41 42 43 44 45 46 47 48 49 50

000
ASUS43 KIWX 220510
RWRIWX

KIWX WEATHER ROUNDUP
NATIONAL WEATHER SERVICE NORTHERN INDIANA
100 AM EDT THU JUN 22 2017

NOTE: "FAIR" INDICATES FEW OR NO CLOUDS BELOW 12,000 FEET WITH NO
SIGNIFICANT WEATHER AND/OR OBSTRUCTIONS TO VISIBILITY.

* THESE STATIONS ARE NOT UNDER NWS QUALITY CONTROL. THEY ALSO MAY NOT
  REPORT WEATHER SUCH AS PRECIPITATION OR FOG.

INZ001>027-220600-
NORTHERN INDIANA

CITY           SKY/WX    TMP DP  RH WIND       PRES   REMARKS
GARY*          CLOUDY    73  60  65 SE5       29.89F
VALPARAISO     PTCLDY    70  63  78 E7        29.92F
MICHIGAN CITY* PTCLDY    68  59  73 SE5       29.92F
LAPORTE*       MOCLDY    68  61  78 SE5       29.93F
KNOX*          PTCLDY    68  55  64 SE6       29.92F
SOUTH BEND     MOCLDY    70  58  65 E5        29.93F
GOSHEN         CLOUDY    69  60  73 SE6       29.94F
MONTICELLO*    CLOUDY    73  68  84 CALM      29.92S
LOGANSPORT*    CLOUDY    68  64  88 SE3       29.94S
ROCHESTER*     CLOUDY    70  66  88 E3        29.94F
WARSAW*        CLOUDY    68  59  73 SE3       29.94F
AUBURN*        PTCLDY    66  57  72 E5        29.97S
FORT WAYNE     MOCLDY    70  62  76 E3        29.96S
PERU/GRISSOM   PTCLDY    72  69  89 S5        29.93S

$$
INZ028>050-220600-
CENTRAL INDIANA

CITY           SKY/WX    TMP DP  RH WIND       PRES   REMARKS
LAFAYETTE      CLOUDY    72  70  93 CALM      29.92F
KOKOMO*        PTCLDY    73  70  90 SE5       29.96S
MUNCIE*        CLOUDY    78  69  73 SW6       29.96S
INDIANAPOLIS   PTCLDY    76  70  82 S9        29.97R

$$
MIZ043>046-050>051-056>058-064>065-071>073-077>080-220600-
SOUTHWEST LOWER MICHIGAN

CITY           SKY/WX    TMP DP  RH WIND       PRES   REMARKS
BATTLE CREEK   CLOUDY    66  56  70 SE5       29.96S
BENTON HARBOR  CLOUDY    67  55  65 SE5       29.91F
COLDWATER*     MOCLDY    64  56  75 SE6       29.96S
HILLSDALE*     MOCLDY    63  54  72 SE6       29.98S
HOLLAND        PTCLDY    64  56  75 SE7       29.92F
GRAND RAPIDS   PTCLDY    62  57  83 SE3       29.93F
KALAMAZOO      PTCLDY    66  54  65 SE3       29.95S
STURGIS*       PTCLDY    66  57  72 E5        29.95S
THREE RIVERS*  FAIR      67  56  69 SE5       29.95S

$$
OHZ001>008-015>018-024>025-220600-
NORTHWEST OHIO

CITY           SKY/WX    TMP DP  RH WIND       PRES   REMARKS
WAUSEON*         N/A     64  54  68 SE6       29.97F
DEFIANCE       PTCLDY    67  50  54 E6        29.97S
FINDLAY        CLOUDY    70  49  47 E6        29.97S
TOLEDO EXPRESS CLEAR     63  55  75 E3        29.97F
TOLEDO METCALF PTCLDY    66  53  63 E5        29.99S
LIMA           CLOUDY    68  60  75 E6        29.98R

$$
AND FOR LAKE MICHIGAN COASTAL AND OPEN LAKE BUOY OBSERVATIONS

STATION/POSITION TEMP    WIND        PRES    VSBY  WAVE
                 AIR SEA DIR/SP/G                  HT/PER
                 (F)     (DEG/KT/KT) (MB)    (MI)  (FT/S)
CALUMET HARBOR    69     140/  2/  3 1011.6F
MICHIGAN CITY     72     130/  7/  8   N/A
BURNS HARBOR      75     140/  6/  9 1012.9F
SOUTH LAKE BUOY   65 61  100/  8/  8 1012.2F         0
4 MI NW BRIDGMAN  71 70  150/  6/ 10 1012.4          1
MICHIGAN CITY     71 68  150/  8/ 10   N/A           1

$$
&&




USA.gov is the U.S. government's official web portal to all federal, state and local government web resources and services.